Weather History for Fortuna, CA

Change the Weather History Date:

Thursday, February 7, 2013

  Actual Average (KEKA) Record (KEKA)
Temperature  
Mean Temperature 44 °F 49 °F  
Max Temperature 48 °F 56 °F 80 °F (1987)
Min Temperature 39 °F 42 °F 28 °F (1989)
Degree Days  
Heating Degree Days 22 16  
Month to date heating degree days 112  
Since 1 July heating degree days 2583  
Cooling Degree Days 0 0  
Month to date cooling degree days 0  
Year to date cooling degree days 0  
Moisture  
Dew Point 41 °F    
Average Humidity 96    
Maximum Humidity 100    
Minimum Humidity 76    
Precipitation  
Precipitation 0.47 in 0.21 in 2.64 in (1938)
Month to date precipitation 1.42  
Year to date precipitation 7.92  
Since 1 July precipitation 24.97  
Snow  
Snow 0.00 in 0.00 in 0.00 in (2002)
Month to date snowfall 0.1  
Since 1 July snowfall 0.1  
Snow Depth -    
Sea Level Pressure  
Sea Level Pressure 30.07 in    
Wind  
Wind Speed 5 mph (SE)    
Max Wind Speed 13 mph    
Max Gust Speed -    
Visibility 8 miles    
Events      
T = Trace of Precipitation, MM = Missing Value Source: NWS Daily Summary

Daily Weather History Graph

Daily Weather History Graph

Search for Another Location

Airport:

Trip Planner

Search our weather history database for the weather conditions in past years. The results will help you decide how hot, cold, wet, or windy it might be!

Date:

Astronomy

Feb. 07, 2013 Rise Set
Actual Time 7:19 AM PST 5:42 PM PST
Civil Twilight 6:51 AM PST 6:10 PM PST
Nautical Twilight 6:18 AM PST 6:43 PM PST
Astronomical Twilight 5:46 AM PST 7:15 PM PST
Moon 5:04 AM PST (2/7) 3:13 PM PST (2/7)
Length of Visible Light 11h 19m
Length of Day
10h 22m
Waning Crescent, 8% of the Moon is Illuminated
Feb 7
Waning Crescent
Feb 9
New
Feb 17
First Quarter
Feb 25
Full
Mar 4
Last Quarter

Hourly Weather History & Observations

Time (PST) Temp. Windchill Dew Point Humidity Pressure Visibility Wind Dir Wind Speed Gust Speed Precip Events Conditions
12:15 AM 46.4 °F 40.7 °F 44.6 °F 93% 30.08 in 6.0 mi ESE 12.7 mph - 0.02 in   Overcast
12:35 AM 44.6 °F 40.7 °F 44.6 °F 100% 30.08 in 5.0 mi ESE 6.9 mph - 0.04 in   Overcast
12:55 AM 44.6 °F - 44.6 °F 100% 30.09 in 4.0 mi Calm Calm - 0.11 in   Overcast
1:15 AM 44.6 °F - 44.6 °F 100% 30.09 in 4.0 mi Calm Calm - 0.05 in   Mostly Cloudy
1:35 AM 44.6 °F - 44.6 °F 100% 30.08 in 5.0 mi Calm Calm - 0.11 in   Overcast
1:55 AM 44.6 °F - 44.6 °F 100% 30.09 in 2.0 mi Calm Calm - 0.15 in   Overcast
2:15 AM 44.6 °F 40.7 °F 44.6 °F 100% 30.10 in 3.0 mi NNW 6.9 mph - 0.04 in   Overcast
2:35 AM 42.8 °F 41.1 °F 42.8 °F 100% 30.09 in 3.0 mi North 3.5 mph - 0.10 in   Overcast
2:55 AM 42.8 °F - 42.8 °F 100% 30.09 in 10.0 mi Calm Calm - 0.11 in   Overcast
3:10 AM 42.8 °F - 42.8 °F 100% 30.09 in 10.0 mi Calm Calm - N/A   Overcast
3:35 AM 41.0 °F - 41.0 °F 100% 30.08 in 10.0 mi Calm Calm - N/A   Overcast
3:55 AM 41.0 °F - 41.0 °F 100% 30.08 in 10.0 mi Calm Calm - N/A   Overcast
4:15 AM 41.0 °F - 41.0 °F 100% 30.09 in 10.0 mi Calm Calm - N/A   Overcast
4:35 AM 41.0 °F - 41.0 °F 100% 30.09 in 0.5 mi Calm Calm - N/A   Overcast
4:55 AM 41.0 °F 35.2 °F 41.0 °F 100% 30.08 in 9.0 mi SE 9.2 mph - N/A   Mostly Cloudy
5:15 AM 39.2 °F 34.2 °F 39.2 °F 100% 30.09 in 10.0 mi SE 6.9 mph - N/A   Scattered Clouds
5:35 AM 39.2 °F 33.6 °F 39.2 °F 100% 30.09 in 2.5 mi ESE 8.1 mph - N/A   Partly Cloudy
5:55 AM 39.2 °F 33.0 °F 39.2 °F 100% 30.09 in 10.0 mi ESE 9.2 mph - N/A   Mostly Cloudy
6:15 AM 39.2 °F 35.0 °F 39.2 °F 100% 30.09 in 1.0 mi SE 5.8 mph - N/A   Overcast
6:35 AM 41.0 °F 37.1 °F 41.0 °F 100% 30.10 in 3.0 mi ENE 5.8 mph - 0.02 in   Overcast
6:55 AM 41.0 °F 36.4 °F 41.0 °F 100% 30.10 in 7.0 mi ESE 6.9 mph - 0.04 in   Overcast
7:15 AM 39.2 °F 33.6 °F 39.2 °F 100% 30.10 in 10.0 mi SE 8.1 mph - N/A   Scattered Clouds
7:35 AM 39.2 °F 33.6 °F 39.2 °F 100% 30.10 in 10.0 mi SE 8.1 mph - N/A   Partly Cloudy
8:15 AM 39.2 °F 34.2 °F 39.2 °F 100% 30.11 in 10.0 mi SE 6.9 mph - N/A   Clear
8:35 AM 41.0 °F 35.2 °F 41.0 °F 100% 30.11 in 10.0 mi ESE 9.2 mph - N/A   Clear
8:55 AM 41.0 °F 35.2 °F 41.0 °F 100% 30.12 in 10.0 mi ESE 9.2 mph - N/A   Clear
9:15 AM 41.0 °F 35.2 °F 41.0 °F 100% 30.11 in 10.0 mi ESE 9.2 mph - N/A   Clear
9:35 AM 42.8 °F 37.5 °F 42.8 °F 100% 30.11 in 10.0 mi ESE 9.2 mph - N/A   Clear
9:55 AM 44.6 °F 39.7 °F 44.6 °F 100% 30.10 in 10.0 mi SE 9.2 mph - N/A   Partly Cloudy
10:15 AM 44.6 °F 39.7 °F 44.6 °F 100% 30.11 in 10.0 mi SE 9.2 mph - N/A   Partly Cloudy
10:35 AM 46.4 °F 41.9 °F 44.6 °F 93% 30.10 in 10.0 mi SE 9.2 mph - N/A   Clear
10:55 AM 48.2 °F - 44.6 °F 87% 30.10 in 10.0 mi SE 10.4 mph - N/A   Partly Cloudy
11:15 AM 48.2 °F - 42.8 °F 82% 30.10 in 10.0 mi SE 9.2 mph - N/A   Scattered Clouds
11:35 AM 48.2 °F - 42.8 °F 82% 30.09 in 10.0 mi ESE 6.9 mph - N/A   Scattered Clouds
11:55 AM 48.2 °F - 41.0 °F 76% 30.09 in 10.0 mi SSW 6.9 mph - N/A   Mostly Cloudy
12:15 PM 46.4 °F 45.2 °F 44.6 °F 93% 30.09 in 7.0 mi SW 3.5 mph - N/A   Mostly Cloudy
12:35 PM 46.4 °F - 41.0 °F 81% 30.08 in 10.0 mi Calm Calm - N/A   Partly Cloudy
12:55 PM 46.4 °F 42.9 °F 39.2 °F 76% 30.07 in 10.0 mi SSE 6.9 mph - 0.01 in   Mostly Cloudy
1:15 PM 46.4 °F 42.4 °F 39.2 °F 76% 30.07 in 10.0 mi South 8.1 mph - N/A   Overcast
1:35 PM 46.4 °F 45.2 °F 39.2 °F 76% 30.06 in 10.0 mi South 3.5 mph - N/A   Overcast
1:55 PM 46.4 °F 44.3 °F 39.2 °F 76% 30.05 in 8.0 mi West 4.6 mph - N/A   Overcast
2:15 PM 44.6 °F 40.2 °F 41.0 °F 87% 30.06 in 6.0 mi WSW 8.1 mph - 0.02 in   Mostly Cloudy
2:35 PM 41.0 °F - 41.0 °F 100% 30.05 in 5.0 mi Calm Calm - 0.05 in   Scattered Clouds
2:55 PM 44.6 °F - 42.8 °F 93% 30.04 in 10.0 mi Calm Calm - 0.05 in   Partly Cloudy
3:15 PM 44.6 °F - 41.0 °F 87% 30.04 in 10.0 mi Calm Calm - N/A   Mostly Cloudy
3:35 PM 44.6 °F - 41.0 °F 87% 30.04 in 10.0 mi Calm Calm - N/A   Overcast
3:55 PM 44.6 °F - 41.0 °F 87% 30.04 in 10.0 mi Calm Calm - N/A   Mostly Cloudy
4:15 PM 44.6 °F - 44.6 °F 100% 30.04 in 10.0 mi Calm Calm - N/A   Overcast
4:35 PM 44.6 °F 40.7 °F 44.6 °F 100% 30.04 in 10.0 mi ESE 6.9 mph - N/A   Overcast
4:55 PM 44.6 °F - 44.6 °F 100% 30.03 in 10.0 mi Calm Calm - N/A   Mostly Cloudy
5:15 PM 44.6 °F - 44.6 °F 100% 30.03 in 10.0 mi Calm Calm - N/A   Mostly Cloudy
5:35 PM 42.8 °F 39.3 °F 42.8 °F 100% 30.03 in 10.0 mi ESE 5.8 mph - N/A   Overcast
5:55 PM 41.0 °F 37.1 °F 41.0 °F 100% 30.03 in 10.0 mi ESE 5.8 mph - N/A   Mostly Cloudy
6:15 PM 41.0 °F 35.8 °F 41.0 °F 100% 30.03 in 10.0 mi ESE 8.1 mph - N/A   Mostly Cloudy
6:35 PM 41.0 °F 35.8 °F 41.0 °F 100% 30.03 in 10.0 mi ESE 8.1 mph - N/A   Overcast
6:55 PM 41.0 °F 36.4 °F 41.0 °F 100% 30.03 in 10.0 mi ESE 6.9 mph - N/A   Overcast
7:15 PM 41.0 °F 35.8 °F 41.0 °F 100% 30.03 in 10.0 mi ESE 8.1 mph - N/A   Overcast
7:35 PM 41.0 °F - 41.0 °F 100% 30.03 in 10.0 mi Calm Calm - N/A   Overcast
7:55 PM 41.0 °F - 41.0 °F 100% 30.03 in 10.0 mi Calm Calm - N/A   Overcast
8:15 PM 41.0 °F - 41.0 °F 100% 30.03 in 10.0 mi Calm Calm - N/A   Overcast
8:35 PM 41.0 °F 35.8 °F 41.0 °F 100% 30.03 in 10.0 mi SE 8.1 mph - N/A   Overcast
8:55 PM 39.2 °F - 39.2 °F 100% 30.03 in 10.0 mi Calm Calm - N/A   Mostly Cloudy
9:15 PM 39.2 °F - 39.2 °F 100% 30.04 in 0.8 mi Calm Calm - N/A   Overcast
9:35 PM 39.2 °F 35.9 °F 39.2 °F 100% 30.04 in 10.0 mi SSE 4.6 mph - N/A   Overcast
9:55 PM 39.2 °F - 39.2 °F 100% 30.04 in 10.0 mi Calm Calm - N/A   Overcast
10:15 PM 39.2 °F - 39.2 °F 100% 30.04 in 10.0 mi Calm Calm - N/A   Overcast
10:35 PM 39.2 °F - 39.2 °F 100% 30.05 in 10.0 mi Calm Calm - N/A   Overcast
10:55 PM 39.2 °F 37.0 °F 39.2 °F 100% 30.05 in 10.0 mi ESE 3.5 mph - N/A   Overcast
11:15 PM 39.2 °F - 39.2 °F 100% 30.05 in 10.0 mi Calm Calm - N/A   Overcast
11:35 PM 39.2 °F - 39.2 °F 100% 30.05 in 10.0 mi Calm Calm - N/A   Overcast
11:55 PM 39.2 °F - 39.2 °F 100% 30.05 in 10.0 mi Calm Calm - N/A   Overcast